| time (UTC) | temp F | wind direction | speed knots | gust knots | rain 1hr in | rain 24hr in | rain mn in | humidity % | barometer mb |
| 20260906234536 | 60 | 69 | 2.6 | 5.2 | 0.00 | 0.00 | 0.00 | 76 | 1017.2 |
| 20260906234037 | 60 | 103 | 2.6 | 5.2 | 0.00 | 0.00 | 0.00 | 76 | 1017.2 |
| 20260906233533 | 60 | 124 | 3.5 | 6.1 | 0.00 | 0.00 | 0.00 | 76 | 1017.2 |
| 20260906233028 | 60 | 152 | 3.5 | 7.0 | 0.00 | 0.00 | 0.00 | 76 | 1017.2 |
| 20260906231529 | 60 | 134 | 3.5 | 7.0 | 0.00 | 0.00 | 0.00 | 76 | 1017.4 |
| 20260906231034 | 60 | 103 | 3.5 | 7.0 | 0.00 | 0.00 | 0.00 | 76 | 1017.4 |
| 20260906230529 | 60 | 105 | 3.5 | 9.6 | 0.00 | 0.00 | 0.00 | 76 | 1017.4 |
| 20260906230029 | 61 | 100 | 4.3 | 9.6 | 0.00 | 0.00 | 0.00 | 75 | 1017.4 |
| 20260906225529 | 61 | 115 | 4.3 | 8.7 | 0.00 | 0.00 | 0.00 | 74 | 1017.4 |
| 20260906225030 | 61 | 158 | 4.3 | 8.7 | 0.00 | 0.00 | 0.00 | 74 | 1017.3 |
| 20260906224027 | 61 | 123 | 4.3 | 8.7 | 0.00 | 0.00 | 0.00 | 75 | 1017.3 |
| 20260906223531 | 61 | 105 | 3.5 | 8.7 | 0.00 | 0.00 | 0.00 | 75 | 1017.4 |
| 20260906222523 | 61 | 104 | 3.5 | 7.8 | 0.00 | 0.00 | 0.00 | 74 | 1017.4 |
| 20260906221024 | 60 | 135 | 4.3 | 8.7 | 0.00 | 0.00 | 0.00 | 75 | 1017.5 |
| 20260906220024 | 60 | 126 | 3.5 | 7.8 | 0.00 | 0.00 | 0.00 | 77 | 1017.5 |
| 20260906215525 | 60 | 137 | 3.5 | 7.8 | 0.00 | 0.00 | 0.00 | 78 | 1017.3 |
| 20260906215025 | 60 | 121 | 3.5 | 7.8 | 0.00 | 0.00 | 0.00 | 78 | 1017.4 |
| 20260906214525 | 60 | 133 | 3.5 | 7.8 | 0.00 | 0.00 | 0.00 | 79 | 1017.4 |
| 20260906214022 | 60 | 128 | 3.5 | 8.7 | 0.00 | 0.00 | 0.00 | 80 | 1017.4 |
| 20260906213022 | 59 | 133 | 4.3 | 10.4 | 0.00 | 0.00 | 0.00 | 80 | 1017.6 |
| 20260906212527 | 59 | 74 | 2.6 | 7.0 | 0.00 | 0.00 | 0.00 | 83 | 1017.5 |
| 20260906212022 | 59 | 130 | 1.7 | 5.2 | 0.00 | 0.00 | 0.00 | 86 | 1017.4 |
| 20260906211523 | 58 | 68 | 2.6 | 5.2 | 0.00 | 0.00 | 0.00 | 87 | 1017.4 |
| 20260906211022 | 58 | 121 | 2.6 | 6.1 | 0.00 | 0.00 | 0.00 | 88 | 1017.5 |
| 20260906210522 | 57 | 146 | 2.6 | 6.1 | 0.00 | 0.00 | 0.00 | 88 | 1017.6 |
| 20260906210023 | 57 | 149 | 3.5 | 6.1 | 0.00 | 0.00 | 0.00 | 88 | 1017.7 |
| 20260906205523 | 57 | 178 | 2.6 | 6.1 | 0.00 | 0.00 | 0.00 | 88 | 1017.8 |
| 20260906205023 | 57 | 125 | 2.6 | 5.2 | 0.00 | 0.00 | 0.00 | 89 | 1017.8 |
| 20260906204520 | 57 | 129 | 2.6 | 5.2 | 0.00 | 0.00 | 0.00 | 89 | 1017.9 |
| 20260906204020 | 56 | 126 | 1.7 | 5.2 | 0.00 | 0.00 | 0.00 | 90 | 1017.9 |
| 20260906203520 | 56 | 115 | 2.6 | 6.1 | 0.00 | 0.00 | 0.00 | 90 | 1017.9 |
| 20260906203021 | 56 | 141 | 3.5 | 8.7 | 0.00 | 0.00 | 0.00 | 90 | 1018.0 |
| 20260906202020 | 57 | 126 | 6.1 | 11.3 | 0.00 | 0.00 | 0.00 | 89 | 1018.3 |
| 20260906201522 | 57 | 149 | 6.1 | 11.3 | 0.00 | 0.00 | 0.00 | 88 | 1018.4 |
| 20260906201022 | 58 | 121 | 4.3 | 8.7 | 0.00 | 0.00 | 0.00 | 86 | 1018.5 |
| 20260906200521 | 58 | 119 | 2.6 | 7.0 | 0.00 | 0.00 | 0.00 | 83 | 1018.3 |
| 20260906200021 | 58 | 122 | 2.6 | 5.2 | 0.00 | 0.00 | 0.00 | 83 | 1018.3 |
| 20260906195017 | 58 | 119 | 2.6 | 5.2 | 0.00 | 0.00 | 0.00 | 83 | 1018.4 |
| 20260906194515 | 58 | 126 | 2.6 | 5.2 | 0.00 | 0.00 | 0.00 | 83 | 1018.4 |
| 20260906194015 | 58 | 107 | 2.6 | 6.1 | 0.00 | 0.00 | 0.00 | 83 | 1018.4 |
| 20260906193515 | 58 | 127 | 3.5 | 7.0 | 0.00 | 0.00 | 0.00 | 83 | 1018.5 |
| 20260906193015 | 58 | 143 | 3.5 | 7.0 | 0.00 | 0.00 | 0.00 | 82 | 1018.5 |
| 20260906192016 | 58 | 128 | 4.3 | 8.7 | 0.00 | 0.00 | 0.00 | 82 | 1018.6 |
| 20260906191515 | 58 | 122 | 3.5 | 8.7 | 0.00 | 0.00 | 0.00 | 82 | 1018.6 |
| 20260906191017 | 58 | 125 | 2.6 | 6.1 | 0.00 | 0.00 | 0.00 | 82 | 1018.6 |
| 20260906190514 | 58 | 142 | 3.5 | 7.0 | 0.00 | 0.00 | 0.00 | 81 | 1018.5 |
| 20260906190014 | 58 | 119 | 3.5 | 7.8 | 0.00 | 0.00 | 0.00 | 82 | 1018.6 |
| 20260906185513 | 58 | 119 | 3.5 | 7.8 | 0.00 | 0.00 | 0.00 | 81 | 1018.7 |
| 20260906185016 | 58 | 163 | 3.5 | 7.0 | 0.00 | 0.00 | 0.00 | 82 | 1018.8 |
| 20260906184013 | 58 | 147 | 2.6 | 7.8 | 0.00 | 0.00 | 0.00 | 82 | 1018.7 |
| 20260906183513 | 58 | 137 | 2.6 | 6.1 | 0.00 | 0.00 | 0.00 | 81 | 1018.8 |
| 20260906183012 | 58 | 152 | 3.5 | 7.8 | 0.00 | 0.00 | 0.00 | 81 | 1018.9 |
| 20260906182519 | 57 | 150 | 4.3 | 8.7 | 0.00 | 0.00 | 0.00 | 82 | 1018.9 |
| 20260906182014 | 57 | 147 | 4.3 | 8.7 | 0.00 | 0.00 | 0.00 | 81 | 1019.0 |
| 20260906181513 | 58 | 139 | 4.3 | 8.7 | 0.00 | 0.00 | 0.00 | 81 | 1018.9 |
| 20260906181013 | 57 | 159 | 4.3 | 7.8 | 0.00 | 0.00 | 0.00 | 81 | 1019.0 |
| 20260906180513 | 57 | 145 | 4.3 | 8.7 | 0.00 | 0.00 | 0.00 | 82 | 1019.1 |
| 20260906180013 | 57 | 142 | 4.3 | 8.7 | 0.00 | 0.00 | 0.00 | 81 | 1019.2 |
| 20260906175011 | 57 | 130 | 4.3 | 10.4 | 0.00 | 0.00 | 0.00 | 81 | 1019.3 |
| 20260906174010 | 57 | 129 | 4.3 | 8.7 | 0.00 | 0.00 | 0.00 | 81 | 1019.2 |
| 20260906173511 | 57 | 113 | 4.3 | 8.7 | 0.00 | 0.00 | 0.00 | 82 | 1019.1 |
| 20260906173011 | 57 | 184 | 4.3 | 7.8 | 0.00 | 0.00 | 0.00 | 81 | 1019.1 |
| 20260906172511 | 57 | 144 | 4.3 | 9.6 | 0.00 | 0.00 | 0.00 | 81 | 1019.1 |
| 20260906171511 | 57 | 138 | 4.3 | 9.6 | 0.00 | 0.00 | 0.00 | 80 | 1019.2 |
| 20260906170513 | 57 | 175 | 3.5 | 7.8 | 0.00 | 0.00 | 0.00 | 82 | 1019.1 |
| 20260906170008 | 57 | 97 | 3.5 | 7.8 | 0.00 | 0.00 | 0.00 | 82 | 1019.1 |
| 20260906165509 | 57 | 104 | 2.6 | 7.0 | 0.00 | 0.00 | 0.00 | 82 | 1019.0 |
| 20260906165008 | 57 | 110 | 1.7 | 5.2 | 0.00 | 0.00 | 0.00 | 82 | 1019.0 |
| 20260906164509 | 57 | 135 | 2.6 | 4.3 | 0.00 | 0.00 | 0.00 | 82 | 1019.1 |
| 20260906164013 | 57 | 129 | 2.6 | 5.2 | 0.00 | 0.00 | 0.00 | 83 | 1018.9 |
| 20260906162509 | 58 | 93 | 0.9 | 3.5 | 0.00 | 0.00 | 0.00 | 80 | 1019.0 |
| 20260906162008 | 57 | 0 | 0.9 | 3.5 | 0.00 | 0.00 | 0.00 | 80 | 1019.0 |
| 20260906160003 | 56 | 105 | 1.7 | 4.3 | 0.00 | 0.00 | 0.00 | 83 | 1018.9 |
| 20260906155503 | 56 | 108 | 1.7 | 4.3 | 0.00 | 0.00 | 0.00 | 85 | 1018.9 |
| 20260906155003 | 56 | 148 | 0.9 | 3.5 | 0.00 | 0.00 | 0.00 | 86 | 1019.1 |
| 20260906154502 | 55 | 164 | 1.7 | 4.3 | 0.00 | 0.00 | 0.00 | 87 | 1019.0 |
| 20260906153959 | 55 | 148 | 1.7 | 4.3 | 0.00 | 0.00 | 0.00 | 87 | 1019.1 |
| 20260906153458 | 55 | 116 | 2.6 | 6.1 | 0.00 | 0.00 | 0.00 | 88 | 1019.1 |
| 20260906152456 | 55 | 125 | 2.6 | 6.1 | 0.00 | 0.00 | 0.00 | 90 | 1019.1 |
| 20260906151955 | 55 | 141 | 1.7 | 4.3 | 0.00 | 0.00 | 0.00 | 91 | 1019.2 |
| 20260906151452 | 55 | 130 | 1.7 | 4.3 | 0.00 | 0.00 | 0.00 | 93 | 1019.2 |
| 20260906150452 | 54 | 113 | 1.7 | 4.3 | 0.00 | 0.00 | 0.00 | 94 | 1019.4 |
| 20260906145949 | 54 | 178 | 1.7 | 4.3 | 0.00 | 0.00 | 0.00 | 94 | 1019.3 |
| 20260906145453 | 54 | 144 | 0.9 | 3.5 | 0.00 | 0.00 | 0.00 | 94 | 1019.4 |
| 20260906144952 | 54 | 164 | 1.7 | 3.5 | 0.00 | 0.00 | 0.00 | 94 | 1019.5 |
| 20260906144452 | 54 | 113 | 1.7 | 3.5 | 0.00 | 0.00 | 0.00 | 94 | 1019.5 |
| 20260906143455 | 54 | 143 | 0.9 | 2.6 | 0.00 | 0.00 | 0.00 | 94 | 1019.5 |
| 20260906142952 | 54 | 149 | 0.9 | 3.5 | 0.00 | 0.00 | 0.00 | 94 | 1019.7 |
| 20260906142454 | 54 | 153 | 1.7 | 4.3 | 0.00 | 0.00 | 0.00 | 94 | 1019.7 |
| 20260906141939 | 54 | 133 | 1.7 | 4.3 | 0.00 | 0.00 | 0.00 | 94 | 1019.7 |
| 20260906141439 | 54 | 147 | 1.7 | 4.3 | 0.00 | 0.00 | 0.00 | 94 | 1019.7 |
| 20260906140942 | 54 | 131 | 1.7 | 4.3 | 0.00 | 0.00 | 0.00 | 94 | 1019.7 |
| 20260906140441 | 54 | 173 | 1.7 | 5.2 | 0.00 | 0.00 | 0.00 | 94 | 1019.7 |
| 20260906135441 | 54 | 145 | 1.7 | 6.1 | 0.00 | 0.00 | 0.00 | 94 | 1019.8 |
| 20260906134942 | 54 | 152 | 1.7 | 3.5 | 0.00 | 0.00 | 0.00 | 93 | 1019.8 |
| 20260906134442 | 54 | 158 | 1.7 | 4.3 | 0.00 | 0.00 | 0.00 | 93 | 1019.7 |
| 20260906133940 | 54 | 130 | 1.7 | 5.2 | 0.00 | 0.00 | 0.00 | 93 | 1019.7 |
| 20260906133440 | 54 | 118 | 2.6 | 5.2 | 0.00 | 0.00 | 0.00 | 93 | 1019.7 |
| 20260906132940 | 54 | 123 | 2.6 | 5.2 | 0.00 | 0.00 | 0.00 | 93 | 1019.7 |
| 20260906132437 | 54 | 125 | 2.6 | 5.2 | 0.00 | 0.00 | 0.00 | 93 | 1019.8 |
| 20260906131938 | 54 | 142 | 2.6 | 5.2 | 0.00 | 0.00 | 0.00 | 93 | 1019.9 |
| 20260906130938 | 54 | 141 | 2.6 | 5.2 | 0.00 | 0.00 | 0.00 | 92 | 1020.0 |
| 20260906130439 | 54 | 99 | 2.6 | 5.2 | 0.00 | 0.00 | 0.00 | 92 | 1020.1 |
| 20260906125938 | 54 | 121 | 2.6 | 4.3 | 0.00 | 0.00 | 0.00 | 92 | 1020.1 |
| 20260906125438 | 54 | 104 | 1.7 | 4.3 | 0.00 | 0.00 | 0.00 | 92 | 1020.1 |
| 20260906124938 | 54 | 121 | 1.7 | 4.3 | 0.00 | 0.00 | 0.00 | 92 | 1020.2 |
| 20260906124436 | 53 | 142 | 1.7 | 4.3 | 0.00 | 0.00 | 0.00 | 92 | 1020.2 |
| 20260906123937 | 53 | 98 | 1.7 | 4.3 | 0.00 | 0.00 | 0.00 | 92 | 1020.0 |
| 20260906123436 | 53 | 104 | 1.7 | 3.5 | 0.00 | 0.00 | 0.00 | 92 | 1020.1 |
| 20260906121426 | 53 | 135 | 1.7 | 4.3 | 0.00 | 0.00 | 0.00 | 92 | 1020.0 |
| 20260906120926 | 53 | 151 | 1.7 | 4.3 | 0.00 | 0.00 | 0.00 | 92 | 1020.1 |
| 20260906120426 | 53 | 119 | 1.7 | 4.3 | 0.00 | 0.00 | 0.00 | 92 | 1020.0 |
| 20260906115925 | 53 | 146 | 1.7 | 4.3 | 0.00 | 0.00 | 0.00 | 92 | 1019.9 |
| 20260906115427 | 53 | 119 | 1.7 | 3.5 | 0.00 | 0.00 | 0.00 | 92 | 1019.8 |
| 20260906114923 | 53 | 133 | 0.9 | 3.5 | 0.00 | 0.00 | 0.00 | 92 | 1019.9 |
| 20260906114423 | 53 | 116 | 0.9 | 3.5 | 0.00 | 0.00 | 0.00 | 92 | 1019.7 |
| 20260906113923 | 53 | 92 | 0.9 | 3.5 | 0.00 | 0.00 | 0.00 | 92 | 1019.8 |
| 20260906113423 | 53 | 124 | 1.7 | 3.5 | 0.00 | 0.00 | 0.00 | 92 | 1019.8 |
| 20260906111923 | 53 | 125 | 0.9 | 2.6 | 0.00 | 0.00 | 0.00 | 92 | 1020.1 |
| 20260906111424 | 53 | 125 | 0.9 | 3.5 | 0.00 | 0.00 | 0.00 | 92 | 1020.1 |
| 20260906110921 | 53 | 70 | 0.9 | 3.5 | 0.00 | 0.00 | 0.00 | 92 | 1020.2 |
| 20260906110422 | 53 | 117 | 0.9 | 3.5 | 0.00 | 0.00 | 0.00 | 92 | 1020.3 |
| 20260906105921 | 53 | 142 | 0.9 | 3.5 | 0.00 | 0.00 | 0.00 | 92 | 1020.4 |
| 20260906104922 | 53 | 113 | 1.7 | 5.2 | 0.00 | 0.00 | 0.00 | 92 | 1020.4 |
| 20260906104422 | 53 | 121 | 1.7 | 5.2 | 0.00 | 0.00 | 0.00 | 92 | 1020.4 |
| 20260906103417 | 53 | 103 | 1.7 | 4.3 | 0.00 | 0.00 | 0.00 | 91 | 1020.6 |
| 20260906102914 | 53 | 129 | 1.7 | 5.2 | 0.00 | 0.00 | 0.00 | 91 | 1020.7 |
| 20260906102413 | 53 | 124 | 2.6 | 5.2 | 0.00 | 0.00 | 0.00 | 92 | 1020.7 |
| 20260906101913 | 53 | 135 | 1.7 | 5.2 | 0.00 | 0.00 | 0.00 | 92 | 1020.7 |
| 20260906101413 | 53 | 117 | 1.7 | 3.5 | 0.00 | 0.00 | 0.00 | 92 | 1020.7 |
| 20260906100913 | 53 | 90 | 0.9 | 3.5 | 0.00 | 0.00 | 0.00 | 92 | 1020.7 |
| 20260906100414 | 53 | 111 | 1.7 | 3.5 | 0.00 | 0.00 | 0.00 | 92 | 1020.7 |
| 20260906095913 | 53 | 118 | 1.7 | 3.5 | 0.00 | 0.00 | 0.00 | 92 | 1020.8 |
| 20260906095409 | 53 | 124 | 0.9 | 3.5 | 0.00 | 0.00 | 0.00 | 92 | 1020.8 |
| 20260906094909 | 53 | 86 | 0.9 | 2.6 | 0.00 | 0.00 | 0.00 | 92 | 1020.8 |
| 20260906094409 | 53 | 69 | 0.9 | 2.6 | 0.00 | 0.00 | 0.00 | 92 | 1020.7 |
| 20260906093906 | 53 | 56 | 0.9 | 1.7 | 0.00 | 0.00 | 0.00 | 92 | 1020.7 |
| 20260906092859 | 53 | 78 | 1.7 | 4.3 | 0.00 | 0.00 | 0.00 | 92 | 1020.8 |
| 20260906092359 | 53 | 74 | 1.7 | 4.3 | 0.00 | 0.00 | 0.00 | 92 | 1020.8 |
| 20260906091859 | 53 | 108 | 1.7 | 3.5 | 0.00 | 0.00 | 0.00 | 92 | 1020.8 |
| 20260906090901 | 53 | 138 | 0.9 | 2.6 | 0.00 | 0.00 | 0.00 | 92 | 1020.8 |
| 20260906090359 | 53 | 126 | 0.9 | 3.5 | 0.00 | 0.00 | 0.00 | 92 | 1020.9 |
| 20260906085901 | 53 | 160 | 1.7 | 3.5 | 0.00 | 0.00 | 0.00 | 92 | 1021.0 |
| 20260906084856 | 53 | 113 | 1.7 | 3.5 | 0.00 | 0.00 | 0.00 | 92 | 1021.2 |
| 20260906084359 | 53 | 67 | 0.9 | 3.5 | 0.00 | 0.00 | 0.00 | 92 | 1021.3 |
| 20260906083856 | 53 | 123 | 1.7 | 3.5 | 0.00 | 0.00 | 0.00 | 92 | 1021.2 |
| 20260906083357 | 53 | 136 | 1.7 | 3.5 | 0.00 | 0.00 | 0.00 | 91 | 1021.5 |
| 20260906082856 | 53 | 124 | 1.7 | 3.5 | 0.00 | 0.00 | 0.00 | 91 | 1021.6 |
| 20260906082356 | 53 | 88 | 1.7 | 3.5 | 0.00 | 0.00 | 0.00 | 91 | 1021.5 |
| 20260906081856 | 53 | 133 | 1.7 | 2.6 | 0.00 | 0.00 | 0.00 | 91 | 1021.5 |
| 20260906080856 | 53 | 119 | 1.7 | 3.5 | 0.00 | 0.00 | 0.00 | 91 | 1021.6 |
| 20260906080357 | 53 | 124 | 1.7 | 3.5 | 0.00 | 0.00 | 0.00 | 90 | 1021.6 |
| 20260906075856 | 53 | 128 | 1.7 | 4.3 | 0.00 | 0.00 | 0.00 | 90 | 1021.6 |
| 20260906075349 | 53 | 150 | 0.9 | 4.3 | 0.00 | 0.00 | 0.00 | 89 | 1021.6 |
| 20260906074849 | 53 | 129 | 0.9 | 2.6 | 0.00 | 0.00 | 0.00 | 89 | 1021.6 |
| 20260906074346 | 53 | 94 | 0.9 | 2.6 | 0.00 | 0.00 | 0.00 | 89 | 1021.6 |
| 20260906073846 | 53 | 96 | 0.9 | 3.5 | 0.00 | 0.00 | 0.00 | 89 | 1021.6 |
| 20260906073345 | 53 | 128 | 1.7 | 3.5 | 0.00 | 0.00 | 0.00 | 88 | 1021.5 |
| 20260906072846 | 53 | 82 | 1.7 | 3.5 | 0.00 | 0.00 | 0.00 | 88 | 1021.6 |
| 20260906072347 | 53 | 52 | 0.9 | 3.5 | 0.00 | 0.00 | 0.00 | 87 | 1021.6 |
| 20260906071846 | 53 | 62 | 0.9 | 2.6 | 0.00 | 0.00 | 0.00 | 87 | 1021.6 |
| 20260906071344 | 53 | 93 | 1.7 | 4.3 | 0.00 | 0.00 | 0.00 | 87 | 1021.7 |
| 20260906070844 | 53 | 125 | 1.7 | 4.3 | 0.00 | 0.00 | 0.00 | 87 | 1021.7 |
| 20260906070346 | 53 | 77 | 1.7 | 4.3 | 0.00 | 0.00 | 0.00 | 86 | 1021.8 |
| 20260906065842 | 53 | 105 | 1.7 | 3.5 | 0.00 | 0.00 | 0.00 | 86 | 1021.8 |
| 20260906065332 | 53 | 68 | 1.7 | 3.5 | 0.00 | 0.00 | 0.00 | 86 | 1021.8 |
| 20260906064832 | 53 | 86 | 1.7 | 4.3 | 0.00 | 0.00 | 0.00 | 86 | 1021.8 |
| 20260906064332 | 54 | 135 | 1.7 | 4.3 | 0.00 | 0.00 | 0.00 | 86 | 1021.8 |
| 20260906063333 | 54 | 79 | 1.7 | 3.5 | 0.00 | 0.00 | 0.00 | 86 | 1021.8 |
| 20260906062835 | 54 | 127 | 1.7 | 3.5 | 0.00 | 0.00 | 0.00 | 86 | 1021.8 |
| 20260906062332 | 54 | 79 | 1.7 | 3.5 | 0.00 | 0.00 | 0.00 | 86 | 1021.8 |
| 20260906061833 | 54 | 77 | 1.7 | 3.5 | 0.00 | 0.00 | 0.00 | 86 | 1021.8 |
| 20260906061332 | 54 | 104 | 1.7 | 3.5 | 0.00 | 0.00 | 0.00 | 86 | 1021.8 |
| 20260906060833 | 54 | 88 | 1.7 | 3.5 | 0.00 | 0.00 | 0.00 | 86 | 1021.8 |
| 20260906060329 | 54 | 57 | 1.7 | 3.5 | 0.00 | 0.00 | 0.00 | 86 | 1021.7 |
| 20260906055831 | 54 | 67 | 1.7 | 3.5 | 0.00 | 0.00 | 0.00 | 86 | 1021.8 |
| 20260906055328 | 54 | 78 | 1.7 | 4.3 | 0.00 | 0.00 | 0.00 | 86 | 1021.8 |
| 20260906054829 | 54 | 121 | 1.7 | 4.3 | 0.00 | 0.00 | 0.00 | 86 | 1021.8 |
| 20260906054329 | 54 | 71 | 1.7 | 3.5 | 0.00 | 0.00 | 0.00 | 86 | 1021.9 |
| 20260906053829 | 54 | 66 | 0.9 | 3.5 | 0.00 | 0.00 | 0.00 | 86 | 1021.9 |
| 20260906053329 | 54 | 74 | 0.9 | 4.3 | 0.00 | 0.00 | 0.00 | 86 | 1021.9 |
| 20260906052830 | 54 | 51 | 1.7 | 4.3 | 0.00 | 0.00 | 0.00 | 86 | 1021.9 |
| 20260906052329 | 54 | 71 | 1.7 | 3.5 | 0.00 | 0.00 | 0.00 | 86 | 1021.9 |
| 20260906051329 | 54 | 55 | 2.6 | 6.1 | 0.00 | 0.00 | 0.00 | 85 | 1021.9 |
| 20260906050829 | 54 | 75 | 2.6 | 6.1 | 0.00 | 0.00 | 0.00 | 85 | 1021.8 |
| 20260906050329 | 54 | 54 | 1.7 | 5.2 | 0.00 | 0.00 | 0.00 | 85 | 1021.8 |
| 20260906045833 | 54 | 133 | 1.7 | 5.2 | 0.00 | 0.00 | 0.00 | 84 | 1021.8 |
| 20260906045329 | 54 | 44 | 1.7 | 5.2 | 0.00 | 0.00 | 0.00 | 84 | 1021.8 |
| 20260906044829 | 54 | 83 | 1.7 | 4.3 | 0.00 | 0.00 | 0.00 | 84 | 1021.8 |
| 20260906043829 | 54 | 20 | 1.7 | 5.2 | 0.00 | 0.00 | 0.00 | 84 | 1021.7 |
| 20260906043328 | 54 | 69 | 1.7 | 5.2 | 0.00 | 0.00 | 0.00 | 83 | 1021.7 |
| 20260906042828 | 54 | 47 | 2.6 | 5.2 | 0.00 | 0.00 | 0.00 | 83 | 1021.6 |
| 20260906041824 | 54 | 4 | 1.7 | 5.2 | 0.00 | 0.00 | 0.00 | 83 | 1021.5 |
| 20260906041325 | 54 | 73 | 1.7 | 4.3 | 0.00 | 0.00 | 0.00 | 83 | 1021.5 |
| 20260906040825 | 54 | 64 | 1.7 | 4.3 | 0.00 | 0.00 | 0.00 | 83 | 1021.6 |
| 20260906035829 | 54 | 51 | 1.7 | 4.3 | 0.00 | 0.00 | 0.00 | 82 | 1021.7 |
| 20260906034825 | 54 | 45 | 1.7 | 4.3 | 0.00 | 0.00 | 0.00 | 82 | 1021.7 |
| 20260906034325 | 54 | 42 | 0.9 | 4.3 | 0.00 | 0.00 | 0.00 | 82 | 1021.7 |
| 20260906033325 | 54 | 73 | 1.7 | 4.3 | 0.00 | 0.00 | 0.00 | 82 | 1021.7 |
| 20260906032826 | 54 | 80 | 1.7 | 4.3 | 0.00 | 0.00 | 0.00 | 82 | 1021.7 |
| 20260906032324 | 54 | 53 | 1.7 | 5.2 | 0.00 | 0.00 | 0.00 | 82 | 1021.7 |
| 20260906031823 | 55 | 62 | 1.7 | 5.2 | 0.00 | 0.00 | 0.00 | 82 | 1021.7 |
| 20260906031323 | 55 | 93 | 1.7 | 4.3 | 0.00 | 0.00 | 0.00 | 81 | 1021.7 |
| 20260906030320 | 55 | 59 | 1.7 | 5.2 | 0.00 | 0.00 | 0.00 | 81 | 1021.7 |
| 20260906025822 | 55 | 38 | 1.7 | 4.3 | 0.00 | 0.00 | 0.00 | 81 | 1021.8 |
| 20260906025321 | 55 | 32 | 1.7 | 6.1 | 0.00 | 0.00 | 0.00 | 81 | 1021.8 |
| 20260906024821 | 55 | 69 | 1.7 | 6.1 | 0.00 | 0.00 | 0.00 | 81 | 1021.8 |
| 20260906024321 | 55 | 61 | 1.7 | 4.3 | 0.00 | 0.00 | 0.00 | 81 | 1021.8 |
| 20260906023821 | 55 | 61 | 1.7 | 4.3 | 0.00 | 0.00 | 0.00 | 80 | 1021.8 |
| 20260906023317 | 55 | 62 | 1.7 | 4.3 | 0.00 | 0.00 | 0.00 | 80 | 1021.8 |
| 20260906022817 | 55 | 57 | 1.7 | 3.5 | 0.00 | 0.00 | 0.00 | 80 | 1021.7 |
| 20260906022317 | 55 | 42 | 1.7 | 3.5 | 0.00 | 0.00 | 0.00 | 80 | 1021.7 |
| 20260906021316 | 55 | 75 | 1.7 | 5.2 | 0.00 | 0.00 | 0.00 | 80 | 1021.7 |
| 20260906020815 | 55 | 98 | 2.6 | 6.1 | 0.00 | 0.00 | 0.00 | 80 | 1021.7 |
| 20260906020315 | 55 | 101 | 2.6 | 6.1 | 0.00 | 0.00 | 0.00 | 80 | 1021.5 |
| 20260906015816 | 55 | 51 | 2.6 | 6.1 | 0.00 | 0.00 | 0.00 | 79 | 1021.5 |
| 20260906014314 | 55 | 53 | 1.7 | 5.2 | 0.00 | 0.00 | 0.00 | 79 | 1021.5 |
| 20260906013813 | 55 | 93 | 1.7 | 5.2 | 0.00 | 0.00 | 0.00 | 79 | 1021.5 |
| 20260906012309 | 55 | 65 | 1.7 | 5.2 | 0.00 | 0.00 | 0.00 | 79 | 1021.4 |
| 20260906011810 | 56 | 342 | 1.7 | 4.3 | 0.00 | 0.00 | 0.00 | 78 | 1021.4 |
| 20260906011308 | 56 | 36 | 1.7 | 4.3 | 0.00 | 0.00 | 0.00 | 78 | 1021.4 |
| 20260906010808 | 56 | 55 | 1.7 | 4.3 | 0.00 | 0.00 | 0.00 | 78 | 1021.4 |
| 20260906010308 | 56 | 72 | 1.7 | 3.5 | 0.00 | 0.00 | 0.00 | 78 | 1021.4 |
| 20260906005809 | 56 | 51 | 1.7 | 3.5 | 0.00 | 0.00 | 0.00 | 77 | 1021.4 |
| 20260906005308 | 56 | 33 | 0.9 | 2.6 | 0.00 | 0.00 | 0.00 | 77 | 1021.4 |
| 20260906004811 | 56 | 347 | 1.7 | 3.5 | 0.00 | 0.00 | 0.00 | 77 | 1021.3 |
| 20260906004308 | 56 | 31 | 1.7 | 3.5 | 0.00 | 0.00 | 0.00 | 78 | 1021.4 |
| 20260906003807 | 56 | 14 | 1.7 | 4.3 | 0.00 | 0.00 | 0.00 | 78 | 1021.4 |
| 20260906003309 | 56 | 49 | 1.7 | 4.3 | 0.00 | 0.00 | 0.00 | 78 | 1021.4 |
| 20260906002809 | 56 | 348 | 1.7 | 3.5 | 0.00 | 0.00 | 0.00 | 78 | 1021.4 |
| 20260906001809 | 56 | 43 | 1.7 | 3.5 | 0.00 | 0.00 | 0.00 | 78 | 1021.4 |
| 20260906001310 | 56 | 330 | 1.7 | 3.5 | 0.00 | 0.00 | 0.00 | 78 | 1021.4 |
| 20260906000811 | 56 | 31 | 1.7 | 4.3 | 0.00 | 0.00 | 0.00 | 78 | 1021.4 |
| 20260906000311 | 56 | 36 | 1.7 | 4.3 | 0.00 | 0.00 | 0.00 | 77 | 1021.4 |
| 20260905235809 | 56 | 302 | 0.9 | 3.5 | 0.00 | 0.00 | 0.00 | 77 | 1021.3 |
| 20260905235311 | 56 | 27 | 1.7 | 3.5 | 0.00 | 0.00 | 0.00 | 77 | 1021.3 |